Flag for Germany Weather past 2 weeks in Lüneburg, Lower Saxony, Germany

Now
50 °F

Broken clouds.


Feels Like: 46 °F
Forecast: 44 / 51 °F
Wind: 12 mph from Southwest

Location: Fassberg

Current Time: Mar 28, 2015 at 5:32:47 PM

Latest Report: Mar 28, 2015 at 4:20 PM


Visibility: N/A

Pressure: 29.92 "Hg

Humidity: 50%

Dew point: 32 °F

Location of LüneburgLocation

Historic Weather in Lüneburg — Graph

°F

Lüneburg temperature yesterday

Maximum temperature yesterday: 45 °F (at 10:20 AM)
Minimum temperature yesterday: 39 °F (at 12:20 AM)
Average temperature yesterday: 42 °F

Past Weeks' High & Low Weather Summary

 TemperatureHumidityPressure
High59 °F (Mar 18, 1:20 PM)100% (Mar 15, 5:20 AM)30.45 "Hg (Mar 15, 5:20 AM)
Low23 °F (Mar 20, 5:20 AM)29% (Mar 19, 3:20 PM)29.65 "Hg (Mar 25, 5:20 PM)
Average41 °F77%30.13 "Hg
* Reported Mar 13 4:20 PM — Mar 28 4:20 PM, Lüneburg, Weather by CustomWeather, © 2015

Note: Actual official high and low records may vary slightly from our data, if they occured in-between our weather recording intervals... More about our weather records

Advertising

Lüneburg weather history for previous 24 hours

 ConditionsComfort  
Time TempWeatherWind HumidityBarometerVisibility
4:20 PM
Sat, Mar 28
50 °FBroken clouds.12 mph50%29.92 "HgN/A
3:20 PM50 °FPartly sunny.13 mph47%29.95 "HgN/A
2:20 PM52 °FScattered clouds.14 mph44%29.98 "HgN/A
1:20 PM50 °FScattered clouds.10 mph47%30.01 "HgN/A
12:20 PM46 °FPartly sunny.9 mph62%30.04 "HgN/A
11:20 AM45 °FScattered clouds.10 mph61%30.09 "HgN/A
10:20 AM45 °FScattered clouds.10 mph71%30.09 "HgN/A
9:20 AM43 °FBroken clouds.7 mph81%30.12 "HgN/A
8:20 AM41 °FPartly sunny.3 mph87%30.15 "Hg5 mi
7:20 AM39 °FPartly sunny.5 mph93%30.15 "Hg4 mi
6:20 AM39 °FPartly sunny.5 mph93%30.15 "Hg4 mi
5:20 AM39 °FFog.2 mph93%30.15 "Hg3 mi
4:20 AM39 °FFog.3 mph93%30.15 "Hg3 mi
3:20 AM39 °FFog.7 mph93%30.15 "Hg2 mi
2:20 AM39 °FFog.7 mph93%30.15 "Hg2 mi
1:20 AM39 °FFog.7 mph93%30.12 "Hg3 mi
12:20 AM41 °FFog.10 mph87%30.12 "Hg3 mi
11:20 PM
Fri, Mar 27
41 °FFog.10 mph93%30.09 "Hg2 mi
10:20 PM41 °FPassing clouds.14 mph93%30.09 "Hg2 mi
9:50 PM43 °FPassing clouds.12 mph87%30.07 "Hg2 mi
9:20 PM43 °FPassing clouds.10 mph87%30.07 "Hg6 mi
8:20 PM43 °FPassing clouds.8 mph87%30.04 "HgN/A
7:20 PM43 °FPartly cloudy.10 mph87%30.01 "HgN/A
6:20 PM43 °FSprinkles. Partly sunny.8 mph93%29.98 "HgN/A
5:20 PM43 °FBroken clouds.9 mph93%29.95 "HgN/A
Weather by CustomWeather, © 2015

See weather overviewHow to use our weather pages